date:2025-05-10T08:55:15+00:00
validtle:1
satid:60606
launchyear:2024
epoch:25129.83380745
epochday:129
tleage:1
tleclassification:U
active:1
name:ZHONGXING-4A
meananomly:235.7660
meanmotion:1.0027
rightascension:0.0000
declination:0.0000
semimajoraxis:42164.850505314
altitudeatperigee:35779
altitudeatapogee:35794
inclination:2.3551
eccentricity:0.0001817
argumentofperigree:135.1287
nickname:ZHONGXING-4A
idesg:24151A  
cosparid:2024-151A
altkm:35790.463382379
velkms:3.0744015641995
velkmh:11068
onumepoch:271
onumnow:272.27
otype:3
otypedesc:Geostationary Orbit
status:3
timestamp:2025-05-09T20:00:41+00:00
nowjuliandate:2460805.8717102
nowepochdate:25130.3717013889
TLE:
ZHONGXING-4A
1 60606U 24151A   25129.83380745 -.00000355  00000+0  00000+0 0  9990
2 60606   2.3551 275.4003 0001817 135.1287 235.7660  1.00271407  2712